Vertical_Velocity
-1 0 -3 0 -1 -1 -0 -1 -1 2 -2 -1 -0 -3 -1 -2 1 -2 1 -5 -3 -2 -2 -3 -1 -1 -2 5 -6 12 0 2 9 12 8 3 5 -7 -11 -10 1 -3 -0 14 7
-2 1 -3 -2 -1 -1 -3 1 -2 1 -1 0 -1 -3 1 -2 1 -6 -1 -1 0 -2 -3 0 2 -0 1 3 -3 1 9 -1 18 -21 14 -34 7 18 14 -12 -14 -7 4 25 -14
-1 -2 -1 -1 -2 -1 -2 -1 1 -0 -2 0 -2 -3 -1 -2 -2 -6 -12 -2 -1 -2 -4 -4 -7 -0 -1 -1 -4 -2 -10 -2 -8 20 9 -18 -1 7 0 -14 4 5 -38 14 -22
1 -2 -0 -1 -1 -2 -2 -4 -0 0 -3 -1 1 -2 0 -3 -0 -4 -3 0 1 -3 -2 -0 -6 -13 -5 -3 -2 3 -3 7 -1 28 11 -28 -36 -7 -6 11 -1 1 -13 8 19
1 -3 0 -3 -0 -2 -1 -4 -2 0 -2 -2 -0 -2 1 -1 2 -4 -2 1 -4 -1 -2 1 -7 -5 -4 7 12 7 -0 15 -5 31 -1 0 -10 13 9 10 -15 -3 8 3 -2
0 -1 -2 -1 -1 -2 -2 -3 -2 -0 -3 1 -1 1 -1 -3 -0 -10 -0 2 -1 -4 -3 -0 5 27 9 5 19 -7 2 3 12 14 3 20 22 -5 -4 3 2 1 -2 7 -10
-1 1 -0 -1 -2 1 -3 -4 -1 -2 -2 -1 -1 -0 1 -4 -4 -4 -1 -2 -2 2 -0 1 8 1 3 -5 5 30 10 -1 32 12 -4 27 -6 -3 -10 0 -4 5 3 2 11
-1 -1 -0 -1 -2 -0 -3 -2 -2 -3 -1 -2 -1 -1 2 -6 0 -2 -3 -1 -1 2 -7 -7 -9 -6 -2 -1 -5 -7 2 2 -1 14 -0 -6 -5 -3 -8 -15 -1 -4 5 13 13
-2 -0 -1 -2 -2 -1 -2 -1 -1 -5 -2 -2 -2 0 -4 -4 -5 -2 -8 -6 -12 3 -2 -6 2 -2 -8 1 -3 -3 -1 -3 -22 -7 3 14 6 7 -3 -8 0 -1 -2 0 -3
-1 -2 -0 -1 1 0 -1 -0 -4 -3 -3 -1 -2 -1 -3 -2 1 -0 -9 -2 6 4 3 -2 1 -3 -3 -2 -6 4 4 -0 -14 -8 0 38 6 5 -1 -6 14 -2 12 -4 2
-1 -2 0 -1 0 1 2 1 -4 -7 -1 0 -8 9 -5 1 11 -7 -3 9 -5 8 3 -0 0 -1 1 16 5 -0 -8 -3 -3 -14 12 8 -0 -2 3 8 12 -8 -5 19 -1
-1 -0 -1 -0 0 1 -0 4 -7 -2 -5 -2 -2 -3 0 -8 7 -12 8 3 -3 1 -2 2 -1 -4 2 -16 5 -5 15 -8 8 19 7 16 3 1 -10 6 6 -17 -26 -30 3
0 -1 -1 -1 0 1 2 3 -3 -1 -7 -2 -3 -1 -5 1 2 -17 5 3 6 18 -34 3 -18 5 -8 -12 4 17 -13 25 3 10 3 7 6 -2 13 10 12 -6 -6 -9 -10
-1 3 -2 0 -1 4 -0 2 0 0 -5 -10 -9 -14 -5 -4 -5 -12 -4 -4 6 3 4 2 -9 -16 -4 -3 18 10 -8 -4 7 -9 -1 10 -2 -6 4 0 24 17 15 8 -3
0 1 1 1 -1 1 3 4 1 -2 -1 10 -6 7 1 -17 13 -12 5 30 1 20 1 -21 -0 -2 3 3 -1 -9 4 -2 -1 2 -13 -19 0 -5 -3 -26 -1 26 10 10 1
-1 -0 -2 -3 7 9 4 1 6 -0 -15 4 -14 -13 1 -2 -2 -6 -11 -5 -9 -4 10 -6 9 -7 -7 7 -15 8 2 -2 6 19 2 0 8 -2 -22 -25 -8 -24 -20 5 8
-2 -1 2 -2 10 -6 0 2 6 0 8 12 -17 -2 -3 8 -11 19 -0 -3 -1 7 -13 3 11 -22 -1 16 10 -3 7 -4 -5 -5 -5 -3 -2 -40 2 11 -9 -4 13 7 6
3 -3 5 4 -1 -1 5 8 6 -6 -12 43 -10 2 -10 2 -8 -8 11 -7 -1 7 6 -5 -4 31 30 19 -1 -1 7 -1 -4 -2 -4 6 2 -27 18 -6 -6 -1 2 8 3
3 -6 -6 12 2 7 4 7 -17 -11 -22 2 20 7 -3 0 0 5 -9 5 -5 4 6 -4 -12 -0 12 8 19 -1 8 -2 -6 4 -3 3 -18 19 -9 -8 -5 -2 5 1 -5
0 -7 -3 14 3 7 3 -4 -17 -9 11 32 8 -1 -2 4 -13 28 3 -13 -4 -2 3 -1 -4 -8 -54 -1 -0 -5 3 5 8 -3 -0 -1 2 6 11 -4 -4 -5 -8 -5 -6
2 -5 14 16 4 8 -9 -10 -21 -2 4 14 -11 11 -13 15 -27 6 -14 -7 -4 16 19 6 -0 -10 -13 -13 -5 3 -2 2 2 3 -5 -2 -1 12 2 8 -8 -7 -8 -0 1
6 -9 4 10 -5 -5 -14 -15 -3 -8 12 -6 13 18 1 16 -35 4 9 -9 -17 36 -14 0 -2 -5 -43 -11 -1 5 0 4 4 -5 1 1 -12 -0 -1 -3 1 8 8 3 0
-3 12 -12 20 -28 -2 6 -12 -6 9 -2 2 -8 4 8 18 -25 8 10 17 2 8 2 3 12 1 13 13 6 -3 -3 3 9 7 -3 -2 -8 4 -0 10 5 2 2 -0 1
13 -15 10 -19 27 5 1 -12 -16 4 -10 4 -14 8 3 33 -41 7 -7 2 9 -16 -2 -2 -2 -4 -12 -7 7 10 -1 1 14 4 -3 -7 -10 -20 12 6 4 -3 -3 -7 -5
-4 -18 -15 -27 -23 5 -3 0 -4 -4 -14 3 17 -5 -4 8 2 14 9 -7 -3 -0 -2 2 -3 -0 -2 -5 8 -9 5 5 8 5 -4 -11 -10 -10 2 -10 2 -1 1 4 15
-5 -20 -8 16 5 8 -4 -17 -7 -2 1 -6 15 -7 3 2 -7 -1 5 9 -0 2 3 0 -4 -3 -7 0 6 -5 -9 -2 1 2 8 16 -1 20 13 12 7 10 9 5 2
21 29 4 9 4 -1 -31 -11 -13 12 3 -5 -1 8 -4 10 4 -2 1 8 1 8 3 1 -3 -1 -6 -5 -5 -9 -11 -8 -6 -1 3 -0 4 16 7 2 1 -4 -2 -6 -6
Height
3156 3156 3156 3155 3154 3152 3150 3149 3146 3144 3141 3139 3135 3131 3130 3128 3126 3125 3126 3124 3122 3120 3120 3122 3125 3128 3129 3130 3132 3136 3137 3137 3141 3140 3141 3141 3140 3138 3136 3138 3139 3144 3144 3143 3143
3152 3152 3152 3151 3150 3149 3147 3145 3143 3141 3138 3136 3132 3129 3127 3127 3124 3125 3125 3122 3120 3119 3120 3122 3125 3127 3129 3130 3132 3134 3135 3139 3143 3141 3138 3138 3140 3137 3140 3134 3142 3144 3145 3143 3141
3148 3148 3148 3147 3146 3145 3144 3142 3140 3138 3136 3133 3129 3127 3126 3126 3124 3125 3122 3121 3120 3120 3121 3122 3124 3127 3129 3130 3132 3134 3136 3140 3141 3139 3133 3132 3136 3138 3138 3137 3140 3141 3141 3138 3143
3143 3144 3143 3142 3142 3141 3140 3139 3136 3135 3133 3129 3127 3125 3125 3125 3126 3124 3122 3121 3119 3120 3121 3123 3124 3127 3130 3131 3131 3134 3136 3139 3141 3137 3137 3136 3138 3136 3138 3136 3139 3139 3139 3140 3144
3138 3139 3139 3138 3138 3137 3137 3136 3133 3132 3130 3127 3125 3124 3124 3124 3124 3124 3122 3121 3120 3120 3121 3123 3127 3128 3129 3131 3133 3134 3135 3138 3139 3137 3137 3134 3134 3136 3137 3138 3136 3141 3142 3142 3146
3132 3133 3134 3134 3133 3133 3133 3132 3130 3129 3126 3124 3122 3122 3123 3123 3122 3123 3124 3124 3123 3123 3123 3123 3127 3131 3130 3131 3131 3133 3134 3136 3136 3135 3137 3138 3138 3137 3140 3142 3141 3144 3144 3147 3147
3126 3128 3128 3130 3130 3129 3129 3129 3127 3125 3123 3122 3120 3121 3121 3123 3122 3123 3124 3125 3125 3125 3126 3124 3127 3128 3128 3126 3128 3130 3134 3135 3137 3135 3136 3139 3140 3141 3140 3143 3145 3145 3146 3147 3148
3119 3122 3124 3126 3126 3125 3125 3125 3123 3122 3121 3119 3118 3120 3120 3121 3123 3123 3124 3125 3125 3125 3124 3125 3125 3126 3128 3129 3129 3130 3133 3134 3135 3134 3136 3139 3142 3141 3142 3142 3145 3145 3149 3148 3150
3114 3116 3118 3121 3122 3121 3122 3121 3120 3119 3118 3118 3117 3118 3119 3120 3121 3123 3124 3124 3123 3124 3123 3124 3125 3127 3129 3129 3130 3130 3133 3135 3136 3133 3138 3139 3140 3142 3143 3144 3146 3147 3150 3152 3152
3108 3110 3112 3116 3117 3117 3118 3117 3115 3116 3115 3115 3116 3119 3119 3120 3121 3122 3124 3125 3126 3125 3125 3125 3126 3127 3128 3129 3129 3130 3131 3133 3133 3134 3137 3139 3140 3142 3143 3144 3146 3150 3152 3153 3154
3102 3104 3108 3111 3112 3113 3115 3114 3115 3114 3111 3113 3113 3115 3115 3118 3121 3122 3124 3126 3125 3126 3126 3127 3128 3127 3127 3128 3128 3129 3133 3133 3132 3133 3136 3136 3139 3140 3141 3144 3147 3150 3152 3152 3151
3095 3099 3103 3107 3108 3109 3111 3110 3109 3110 3109 3108 3109 3111 3113 3114 3118 3119 3124 3126 3125 3126 3127 3129 3129 3129 3130 3128 3129 3131 3133 3133 3130 3134 3136 3137 3136 3138 3141 3143 3144 3145 3146 3148 3152
3090 3094 3098 3102 3104 3106 3107 3108 3106 3106 3105 3106 3106 3110 3112 3115 3115 3117 3122 3124 3125 3126 3127 3128 3129 3129 3130 3128 3130 3132 3131 3128 3129 3132 3135 3137 3139 3141 3142 3142 3144 3141 3144 3145 3147
3084 3089 3093 3096 3102 3102 3103 3103 3104 3106 3106 3103 3103 3106 3109 3111 3112 3115 3118 3124 3124 3125 3125 3125 3125 3127 3128 3128 3130 3130 3131 3129 3130 3132 3134 3136 3139 3139 3141 3142 3143 3139 3141 3144 3146
3078 3083 3088 3090 3096 3097 3101 3101 3102 3105 3108 3100 3100 3104 3106 3109 3111 3114 3117 3120 3121 3123 3126 3125 3124 3126 3127 3127 3128 3128 3126 3128 3130 3130 3131 3134 3138 3137 3139 3139 3140 3142 3143 3141 3140
3072 3077 3080 3085 3092 3095 3097 3099 3103 3106 3100 3096 3097 3100 3105 3106 3108 3111 3115 3118 3121 3122 3123 3122 3124 3125 3125 3126 3127 3127 3127 3127 3129 3130 3132 3130 3129 3128 3129 3131 3133 3135 3138 3138 3137
3064 3070 3075 3079 3086 3086 3091 3097 3102 3098 3095 3095 3095 3099 3102 3105 3106 3109 3110 3114 3118 3120 3121 3120 3122 3124 3123 3126 3127 3127 3126 3127 3130 3130 3131 3129 3130 3127 3124 3126 3126 3128 3130 3134 3134
3054 3062 3067 3075 3077 3084 3089 3093 3091 3088 3089 3092 3093 3097 3100 3102 3105 3107 3109 3110 3114 3116 3118 3119 3122 3123 3125 3126 3126 3126 3126 3127 3131 3135 3128 3123 3125 3121 3119 3119 3122 3125 3129 3130 3131
3045 3051 3057 3070 3073 3079 3084 3081 3077 3082 3086 3089 3092 3094 3096 3099 3102 3104 3106 3108 3109 3112 3115 3115 3119 3120 3120 3122 3126 3125 3125 3123 3124 3127 3131 3122 3121 3120 3116 3117 3118 3120 3123 3124 3127
3033 3040 3050 3064 3066 3072 3075 3068 3071 3079 3081 3088 3089 3091 3092 3096 3100 3101 3102 3104 3106 3108 3112 3113 3117 3119 3121 3121 3120 3122 3123 3122 3121 3129 3129 3121 3121 3118 3118 3117 3118 3118 3119 3121 3124
3024 3031 3044 3055 3060 3063 3055 3058 3067 3074 3077 3084 3084 3087 3089 3092 3094 3097 3099 3100 3102 3105 3108 3110 3113 3114 3116 3120 3119 3120 3119 3119 3120 3120 3121 3125 3121 3118 3118 3117 3115 3116 3116 3117 3118
3013 3020 3034 3043 3048 3046 3044 3052 3065 3070 3074 3077 3081 3083 3086 3089 3092 3093 3094 3095 3095 3101 3104 3108 3108 3110 3114 3114 3115 3116 3116 3116 3116 3117 3117 3117 3118 3117 3116 3116 3116 3115 3115 3115 3115
3004 3013 3026 3036 3035 3034 3042 3051 3060 3063 3067 3071 3076 3078 3082 3084 3090 3090 3091 3093 3097 3099 3102 3104 3106 3108 3112 3114 3113 3113 3112 3113 3112 3112 3112 3114 3114 3113 3113 3114 3113 3113 3114 3113 3113
2996 3005 3016 3020 3024 3029 3035 3044 3052 3059 3063 3066 3073 3075 3078 3082 3085 3087 3086 3090 3091 3096 3099 3101 3102 3105 3107 3108 3110 3109 3107 3107 3108 3109 3110 3110 3110 3110 3110 3109 3110 3110 3111 3110 3110
2980 2988 2995 2999 3007 3019 3030 3039 3045 3052 3058 3063 3068 3070 3074 3078 3081 3082 3083 3086 3090 3093 3095 3097 3098 3101 3103 3104 3105 3104 3105 3105 3105 3105 3105 3107 3108 3106 3106 3105 3105 3105 3106 3107 3108
2968 2979 2991 2995 3002 3015 3022 3028 3037 3047 3054 3057 3063 3067 3071 3072 3076 3079 3081 3084 3085 3089 3091 3091 3093 3097 3099 3100 3100 3100 3101 3100 3100 3101 3102 3103 3103 3105 3104 3102 3103 3102 3102 3101 3102
2957 2975 2987 2991 2997 3008 3007 3021 3030 3045 3050 3056 3060 3065 3068 3071 3074 3076 3079 3081 3082 3086 3088 3090 3091 3093 3095 3097 3097 3096 3096 3097 3097 3098 3100 3099 3100 3101 3097 3097 3095 3096 3097 3096 3097